Weather History for Grand Marais Airport, MN

Change the Weather History Date:

Tuesday, January 22, 2013

  Actual Average Record
Temperature  
Mean Temperature -17 °F -  
Max Temperature -7 °F 14 °F 28 °F (1997)
Min Temperature -27 °F 0 °F -27 °F (2013)
Degree Days  
Heating Degree Days 82    
Moisture  
Dew Point -25 °F    
Average Humidity 64    
Maximum Humidity 77    
Minimum Humidity 54    
Precipitation  
Precipitation 0.00 in - - ()
Sea Level Pressure  
Sea Level Pressure 30.04 in    
Wind  
Wind Speed 9 mph (WNW)    
Max Wind Speed 14 mph    
Max Gust Speed 23 mph    
Visibility 10 miles    
Events      
Averages and records for this station are not official NWS values.
T = Trace of Precipitation, MM = Missing Value Source: NWS Daily Summary

Daily Weather History Graph

Daily Weather History Graph

Search for Another Location

Airport:

Trip Planner

Search our weather history database for the weather conditions in past years. The results will help you decide how hot, cold, wet, or windy it might be!

Date:

Astronomy

Jan. 22, 2013 Rise Set
Actual Time 7:39 AM CST 4:47 PM CST
Civil Twilight 7:05 AM CST 5:21 PM CST
Nautical Twilight 6:27 AM CST 5:59 PM CST
Astronomical Twilight 5:51 AM CST 6:35 PM CST
Moon 1:06 PM CST (1/22) 4:04 AM CST (1/22)
Length of Visible Light 10h 15m
Length of Day
9h 07m
Waxing Gibbous, 83% of the Moon is Illuminated
Jan 22
Waxing Gibbous
Jan 26
Full
Feb 3
Last Quarter
Feb 10
New
Feb 17
First Quarter

Hourly Weather History & Observations

Time (CST) Temp. Windchill Dew Point Humidity Pressure Visibility Wind Dir Wind Speed Gust Speed Precip Events Conditions
12:14 AM -20.2 °F -41.3 °F -29.2 °F 63% 29.99 in 10.0 mi NW 10.4 mph 18.4 mph N/A   Overcast
12:34 AM -20.2 °F -40.1 °F -29.2 °F 63% 29.99 in 10.0 mi NW 9.2 mph 18.4 mph N/A   Overcast
12:53 AM -20.2 °F -42.4 °F -29.2 °F 63% 29.99 in 7.0 mi NW 11.5 mph 18.4 mph N/A   Overcast
1:13 AM -22.0 °F -45.7 °F -29.2 °F 69% 29.99 in 10.0 mi NW 12.7 mph 19.6 mph N/A   Mostly Cloudy
1:33 AM -22.0 °F -45.7 °F -31.0 °F 63% 30.00 in 10.0 mi NW 12.7 mph 21.9 mph N/A   Clear
1:53 AM -23.8 °F -44.5 °F -31.0 °F 69% 30.01 in 10.0 mi NW 9.2 mph 17.3 mph N/A   Clear
2:06 AM -23.8 °F -43.2 °F -32.8 °F 63% 30.01 in 10.0 mi NW 8.1 mph 16.1 mph N/A   Clear
2:21 AM -23.8 °F -44.5 °F -31.0 °F 69% 30.02 in 10.0 mi NW 9.2 mph 16.1 mph N/A   Clear
2:41 AM -23.8 °F -46.9 °F -31.0 °F 69% 30.02 in 10.0 mi NW 11.5 mph 17.3 mph N/A   Clear
3:01 AM -23.8 °F -45.8 °F -32.8 °F 63% 30.02 in 10.0 mi NW 10.4 mph 17.3 mph N/A   Clear
3:21 AM -23.8 °F -41.6 °F -32.8 °F 63% 30.03 in 10.0 mi NW 6.9 mph - N/A   Clear
3:41 AM -23.8 °F -41.6 °F -32.8 °F 63% 30.03 in 10.0 mi NW 6.9 mph 16.1 mph N/A   Scattered Clouds
4:01 AM -25.6 °F -45.4 °F -32.8 °F 69% 30.03 in 10.0 mi NW 8.1 mph - N/A   Scattered Clouds
4:22 AM -25.6 °F -43.8 °F -32.8 °F 69% 30.03 in 10.0 mi NW 6.9 mph - N/A   Clear
4:33 AM -25.6 °F -41.9 °F -32.8 °F 69% 30.04 in 10.0 mi NW 5.8 mph - N/A   Scattered Clouds
4:54 AM -25.6 °F -45.4 °F -34.6 °F 63% 30.04 in 10.0 mi NW 8.1 mph - N/A   Scattered Clouds
5:14 AM -25.6 °F -46.8 °F -34.6 °F 63% 30.04 in 10.0 mi WNW 9.2 mph - N/A   Clear
5:34 AM -25.6 °F -43.8 °F -34.6 °F 63% 30.04 in 10.0 mi WNW 6.9 mph - N/A   Clear
5:53 AM -25.6 °F -45.4 °F -34.6 °F 63% 30.04 in 10.0 mi NW 8.1 mph - N/A   Scattered Clouds
6:14 AM -27.4 °F -49.0 °F -34.6 °F 69% 30.06 in 10.0 mi WNW 9.2 mph - N/A   Scattered Clouds
6:33 AM -27.4 °F -49.0 °F -34.6 °F 69% 30.06 in 10.0 mi NW 9.2 mph - N/A   Clear
6:54 AM -27.4 °F -47.6 °F -34.6 °F 69% 30.06 in 10.0 mi WNW 8.1 mph - N/A   Scattered Clouds
7:14 AM -27.4 °F -45.9 °F -34.6 °F 69% 30.06 in 10.0 mi WNW 6.9 mph - N/A   Scattered Clouds
7:33 AM -25.6 °F -39.8 °F -34.6 °F 63% 30.06 in 10.0 mi WNW 4.6 mph - N/A   Clear
7:53 AM -25.6 °F -43.8 °F -34.6 °F 63% 30.06 in 10.0 mi WNW 6.9 mph - N/A   Mostly Cloudy
8:13 AM -25.6 °F -43.8 °F -32.8 °F 69% 30.05 in 10.0 mi WNW 6.9 mph - N/A   Overcast
8:34 AM -23.8 °F -44.5 °F -32.8 °F 63% 30.05 in 10.0 mi WNW 9.2 mph 16.1 mph N/A   Mostly Cloudy
8:53 AM -23.8 °F -44.5 °F -31.0 °F 69% 30.05 in 10.0 mi WNW 9.2 mph - N/A   Mostly Cloudy
9:13 AM -20.2 °F -41.3 °F -29.2 °F 63% 30.06 in 10.0 mi WNW 10.4 mph 16.1 mph N/A   Mostly Cloudy
9:34 AM -20.2 °F -40.1 °F -29.2 °F 63% 30.08 in 10.0 mi WNW 9.2 mph 20.7 mph N/A   Scattered Clouds
9:53 AM -18.4 °F -42.1 °F -27.4 °F 63% 30.08 in 10.0 mi WNW 13.8 mph 23.0 mph N/A   Scattered Clouds
10:14 AM -16.6 °F -34.4 °F -25.6 °F 64% 30.08 in 10.0 mi WNW 8.1 mph 16.1 mph N/A   Clear
10:34 AM -14.8 °F -36.6 °F -25.6 °F 58% 30.07 in 10.0 mi NW 12.7 mph 18.4 mph N/A   Clear
10:54 AM -14.8 °F -32.2 °F -25.6 °F 58% 30.07 in 10.0 mi NW 8.1 mph 19.6 mph N/A   Clear
11:14 AM -13.0 °F -32.4 °F -23.8 °F 59% 30.06 in 10.0 mi WNW 10.4 mph 17.3 mph N/A   Clear
11:33 AM -11.2 °F -31.1 °F -23.8 °F 54% 30.06 in 10.0 mi WNW 11.5 mph 18.4 mph N/A   Clear
11:54 AM -11.2 °F -31.1 °F -23.8 °F 54% 30.06 in 10.0 mi WNW 11.5 mph 19.6 mph N/A   Clear
12:13 PM -9.4 °F -24.3 °F -22.0 °F 54% 30.06 in 10.0 mi West 6.9 mph - N/A   Clear
12:34 PM -9.4 °F -25.6 °F -20.2 °F 59% 30.06 in 10.0 mi West 8.1 mph - N/A   Clear
12:53 PM -7.6 °F -23.4 °F -20.2 °F 54% 30.06 in 10.0 mi West 8.1 mph - N/A   Clear
1:14 PM -7.6 °F -22.1 °F -20.2 °F 54% 30.06 in 10.0 mi West 6.9 mph - N/A   Clear
1:33 PM -7.6 °F -22.1 °F -20.2 °F 54% 30.06 in 10.0 mi West 6.9 mph - N/A   Clear
1:53 PM -7.6 °F -20.6 °F -20.2 °F 54% 30.05 in 10.0 mi WNW 5.8 mph - N/A   Clear
2:14 PM -7.6 °F -20.6 °F -18.4 °F 59% 30.05 in 10.0 mi WNW 5.8 mph - N/A   Clear
2:33 PM -7.6 °F -24.6 °F -18.4 °F 59% 30.05 in 10.0 mi West 9.2 mph - N/A   Clear
2:53 PM -7.6 °F -24.6 °F -18.4 °F 59% 30.06 in 10.0 mi West 9.2 mph - N/A   Clear
3:14 PM -9.4 °F -24.3 °F -20.2 °F 59% 30.06 in 10.0 mi West 6.9 mph - N/A   Clear
3:33 PM -9.4 °F -20.9 °F -20.2 °F 59% 30.06 in 10.0 mi West 4.6 mph - N/A   Clear
3:54 PM -9.4 °F -20.9 °F -20.2 °F 59% 30.06 in 10.0 mi West 4.6 mph - N/A   Clear
4:14 PM -11.2 °F - -20.2 °F 64% 30.06 in 10.0 mi Calm Calm - N/A   Clear
4:34 PM -13.0 °F -25.1 °F -20.2 °F 70% 30.06 in 10.0 mi West 4.6 mph - N/A   Clear
4:53 PM -13.0 °F -25.1 °F -20.2 °F 70% 30.06 in 10.0 mi West 4.6 mph - N/A   Scattered Clouds
5:14 PM -14.8 °F -24.8 °F -20.2 °F 77% 30.05 in 10.0 mi West 3.5 mph - N/A   Scattered Clouds
5:34 PM -14.8 °F -27.2 °F -22.0 °F 70% 30.05 in 10.0 mi West 4.6 mph - N/A   Clear
5:53 PM -14.8 °F -29.1 °F -22.0 °F 70% 30.05 in 10.0 mi West 5.8 mph - N/A   Clear
6:13 PM -14.8 °F -29.1 °F -22.0 °F 70% 30.05 in 10.0 mi West 5.8 mph - N/A   Clear
6:33 PM -14.8 °F -29.1 °F -20.2 °F 77% 30.04 in 10.0 mi West 5.8 mph - N/A   Clear
6:54 PM -13.0 °F -30.0 °F -20.2 °F 70% 30.04 in 10.0 mi West 8.1 mph - N/A   Clear
7:14 PM -13.0 °F -30.0 °F -20.2 °F 70% 30.03 in 10.0 mi West 8.1 mph - N/A   Clear
7:33 PM -11.2 °F -30.1 °F -20.2 °F 64% 30.03 in 10.0 mi West 10.4 mph - N/A   Clear
7:53 PM -11.2 °F -29.0 °F -20.2 °F 64% 30.02 in 10.0 mi West 9.2 mph - N/A   Scattered Clouds
8:14 PM -11.2 °F -29.0 °F -18.4 °F 70% 30.01 in 10.0 mi West 9.2 mph - N/A   Scattered Clouds
8:34 PM -11.2 °F -26.4 °F -18.4 °F 70% 30.01 in 10.0 mi West 6.9 mph - N/A   Scattered Clouds
8:54 PM -11.2 °F -29.0 °F -18.4 °F 70% 30.01 in 10.0 mi West 9.2 mph - N/A   Overcast
9:13 PM -9.4 °F -26.8 °F -18.4 °F 65% 30.01 in 10.0 mi West 9.2 mph - N/A   Overcast
9:33 PM -9.4 °F -26.8 °F -18.4 °F 65% 30.00 in 10.0 mi West 9.2 mph - N/A   Overcast
9:53 PM -9.4 °F -26.8 °F -18.4 °F 65% 30.00 in 10.0 mi West 9.2 mph - N/A   Mostly Cloudy
10:14 PM -9.4 °F -26.8 °F -18.4 °F 65% 30.00 in 10.0 mi West 9.2 mph - N/A   Scattered Clouds
10:34 PM -9.4 °F -26.8 °F -18.4 °F 65% 30.00 in 10.0 mi West 9.2 mph - N/A   Scattered Clouds
10:53 PM -9.4 °F -25.6 °F -18.4 °F 65% 30.00 in 10.0 mi West 8.1 mph - N/A   Scattered Clouds
11:14 PM -9.4 °F -24.3 °F -18.4 °F 65% 30.00 in 10.0 mi West 6.9 mph - N/A   Scattered Clouds
11:34 PM -9.4 °F -26.8 °F -18.4 °F 65% 30.00 in 10.0 mi WNW 9.2 mph - N/A   Clear
11:53 PM -9.4 °F -24.3 °F -18.4 °F 65% 29.99 in 10.0 mi WNW 6.9 mph - N/A   Scattered Clouds